Location: Akdamlar
(36.8729°N, 30.5187°E)
Time: 18:43:18
(UTC+00:00)

Cosmos 1174 - Pass Details

Date: 18 September 2020
Orbit: 362 x 1155 km, 66.1° (Epoch: 25 October)

Event Time Altitude Azimuth Distance (km) Brightness Sun altitude
Rises 17:40:03 0° 209° (SSW) 2,777 7.5 -20.4°
Reaches altitude 10° 17:42:03 10° 210° (SSW) 1,989 6.8 -20.8°
Maximum altitude 17:46:35 83° 299° (WNW) 746 4.4 -21.6°
Drops below altitude 10° 17:52:26 10° 27° (NNE) 2,539 7.1 -22.7°
Sets 17:55:14 0° 28° (NNE) 3,611 7.9 -23.2°
